EW9852 Weather Reports


time (UTC)temp
F
wind
direction
speed
knots
gust
knots
rain 1hr
in
rain 24hr
in
rain mn
in
humidity
%
barometer
mb
20260507060034 50 261 0.0 3.5 0.00 0.19 0.00 83 1009.4
20260507054539 50 221 0.9 2.6 0.00 0.19 0.00 84 1009.3
20260507053031 50 313 0.0 0.0 0.00 0.19 0.00 86 1009.2
20260507051529 50 335 0.0 0.0 0.00 0.19 0.00 87 1009.3
20260507050034 50 336 0.0 0.0 0.00 0.19 0.00 88 1009.0
20260507044535 50 336 0.0 0.0 0.00 0.19 0.00 88 1009.1
20260507043025 50 336 0.0 0.0 0.00 0.19 0.00 88 1008.8
20260507041531 50 336 0.0 0.0 0.00 0.19 0.00 87 1009.0
20260507040022 50 336 0.0 0.0 0.00 0.19 0.00 87 1009.0
20260507034522 50 336 0.0 0.0 0.00 0.19 0.19 86 1008.6
20260507033025 51 336 0.0 0.0 0.00 0.19 0.19 86 1008.7
20260507031525 51 336 0.0 0.9 0.00 0.19 0.19 85 1008.9
20260507030017 52 336 0.0 0.0 0.00 0.19 0.19 84 1008.7
20260507024516 52 336 0.0 0.0 0.00 0.19 0.19 84 1008.5
20260507023016 52 49 0.0 1.7 0.00 0.19 0.19 84 1008.7
20260507021515 52 49 0.0 2.6 0.00 0.19 0.19 84 1008.7
20260507020016 52 67 0.0 1.7 0.00 0.19 0.19 84 1009.2
20260507014517 52 75 0.0 0.9 0.00 0.19 0.19 84 1009.1
20260507013020 53 75 0.0 1.7 0.00 0.19 0.19 84 1009.1
20260507011517 53 344 0.0 0.9 0.00 0.19 0.19 84 1008.9
20260507010009 53 330 0.0 2.6 0.00 0.19 0.19 84 1009.0
20260507004515 53 318 0.0 3.5 0.00 0.19 0.19 84 1008.5
20260507003003 54 327 0.0 7.8 0.00 0.19 0.19 85 1008.2
20260507001502 54 220 0.0 1.7 0.00 0.19 0.19 85 1007.7
20260507000100 54 217 0.0 2.6 0.00 0.19 0.19 84 1007.3
20260506234602 55 223 0.0 3.5 0.00 0.19 0.19 84 1006.9
20260506233058 55 250 0.0 6.1 0.00 0.19 0.19 83 1006.7
20260506231558 56 250 0.9 3.5 0.00 0.19 0.19 83 1006.9
20260506230056 56 83 0.9 3.5 0.00 0.19 0.19 84 1006.2
20260506224547 57 344 0.9 2.6 0.00 0.19 0.19 84 1006.1
20260506223053 58 310 0.9 4.3 0.00 0.19 0.19 82 1005.9
20260506221542 60 348 0.9 7.0 0.00 0.19 0.19 81 1005.6
20260506220039 62 275 0.9 7.0 0.00 0.19 0.19 83 1005.1
20260506214538 62 244 1.7 4.3 0.00 0.19 0.19 83 1004.6
20260506213056 63 240 1.7 4.3 0.00 0.19 0.19 83 1004.2
20260506211548 64 243 1.7 6.1 0.00 0.19 0.19 83 1004.1
20260506210037 64 243 1.7 4.3 0.00 0.19 0.19 86 1003.8
20260506204545 64 242 1.7 4.3 0.00 0.19 0.19 87 1003.8
20260506203035 63 224 2.6 4.3 0.00 0.19 0.19 87 1003.6
20260506201547 63 255 1.7 5.2 0.00 0.19 0.19 89 1003.6
20260506200034 63 238 0.9 3.5 0.00 0.19 0.19 90 1003.6
20260506194534 63 252 1.7 6.1 0.00 0.19 0.19 89 1003.6
20260506193037 63 240 2.6 4.3 0.00 0.19 0.19 89 1003.7
20260506191540 63 227 2.6 7.8 0.00 0.19 0.19 91 1003.7
20260506190034 62 231 1.7 6.1 0.00 0.19 0.19 92 1003.9
20260506184531 62 181 1.7 5.2 0.00 0.19 0.19 94 1003.8
20260506183040 61 211 0.9 5.2 0.00 0.19 0.19 94 1003.8
20260506181531 61 205 1.7 4.3 0.00 0.19 0.19 94 1003.9
20260506180035 60 240 2.6 4.3 0.00 0.19 0.19 95 1004.0
20260506174530 60 232 1.7 6.1 0.00 0.19 0.19 95 1004.0
20260506173029 60 245 2.6 8.7 0.00 0.19 0.19 95 1004.0
20260506171532 60 228 1.7 6.1 0.00 0.19 0.19 94 1004.1
20260506170033 59 229 2.6 6.1 0.00 0.19 0.19 94 1004.2
20260506164528 59 232 0.9 4.3 0.00 0.19 0.19 94 1004.3
20260506163027 59 239 2.6 6.1 0.00 0.19 0.19 94 1004.3
20260506161527 59 238 1.7 7.8 0.00 0.19 0.19 94 1004.2
20260506160026 59 175 3.5 9.6 0.01 0.19 0.19 94 1004.2
20260506154524 59 197 3.5 7.0 0.02 0.19 0.19 94 1004.2
20260506153023 59 198 2.6 4.3 0.02 0.19 0.19 95 1004.0
20260506151522 59 201 1.7 5.2 0.03 0.19 0.19 95 1003.8
20260506150021 59 166 2.6 6.1 0.02 0.18 0.18 94 1004.0
20260506144520 59 222 1.7 5.2 0.03 0.17 0.17 94 1004.2
20260506143028 59 231 2.6 4.3 0.04 0.17 0.17 94 1004.1
20260506141517 58 239 0.9 3.5 0.04 0.16 0.16 93 1004.3
20260506140016 58 232 1.7 4.3 0.05 0.16 0.16 93 1004.1
20260506134514 58 202 0.0 2.6 0.04 0.14 0.14 93 1004.2
20260506133012 58 220 0.0 2.6 0.06 0.13 0.13 92 1004.1
20260506131511 58 185 0.0 1.7 0.08 0.12 0.12 91 1004.3
20260506130014 58 185 0.0 1.7 0.09 0.11 0.11 91 1004.4
20260506124508 58 192 0.9 1.7 0.08 0.09 0.09 90 1004.5
20260506123006 59 191 0.9 3.5 0.06 0.07 0.07 88 1004.8
20260506121503 60 236 0.9 3.5 0.04 0.04 0.04 85 1004.9
20260506120059 61 214 0.0 2.6 0.02 0.02 0.02 79 1004.9
20260506114556 62 217 0.0 1.7 0.01 0.01 0.01 75 1004.4
20260506113052 63 224 0.0 0.9 0.01 0.01 0.01 73 1004.3
20260506111551 64 224 0.0 0.0 0.00 0.00 0.00 69 1004.3
20260506110051 64 224 0.9 3.5 0.00 0.00 0.00 64 1004.2
20260506104550 65 237 0.9 5.2 0.00 0.00 0.00 62 1003.8
20260506103053 65 246 1.7 4.3 0.00 0.00 0.00 61 1003.8
20260506101547 65 232 1.7 7.0 0.00 0.00 0.00 59 1003.7
20260506100046 64 240 1.7 2.6 0.00 0.00 0.00 60 1003.6
20260506094546 64 195 0.0 0.9 0.00 0.00 0.00 62 1003.6
20260506093045 64 193 0.0 2.6 0.00 0.00 0.00 60 1003.5
20260506091544 64 215 0.0 3.5 0.00 0.00 0.00 59 1003.5
20260506090049 65 198 0.0 0.0 0.00 0.00 0.00 59 1003.7
20260506084559 65 198 0.0 1.7 0.00 0.00 0.00 57 1003.7
20260506083042 65 198 0.0 2.6 0.00 0.00 0.00 57 1003.8
20260506081542 65 198 0.0 1.7 0.00 0.00 0.00 56 1003.7
20260506073043 66 212 0.9 5.2 0.00 0.00 0.00 56 1003.9
20260506071536 66 199 1.7 3.5 0.00 0.00 0.00 54 1003.9
20260506061544 66 155 0.9 2.6 0.00 0.00 0.00 55 1004.6